User: anonymous   Login
Location: Unspecified
(0.0000°N, 0.0000°E)
Time: 14:19:33
(UTC+00:00)
Language:

SO-67 - Orbit

View from above orbital plane
View from above orbital plane
View from above satellite
View from above satellite

Ground track
Ground track

The orbit data is extracted from the following two-line orbital elements,

1 35870U 09049F   18053.51450818 +.00005745 +00000-0 +82087-4 0  9994
2 35870 097.0903 073.3006 0001450 135.1940 018.1214 15.56642892472126
Epoch (UTC): 22 February 2018 12:20:53
Eccentricity: 0.0001450
inclination: 97.0903°
perigee height: 396 km
apogee height: 398 km
right ascension of ascending node: 73.3006°
argument of perigee: 135.1940°
revolutions per day: 15.56642892
mean anomaly at epoch: 18.1214°
orbit number at epoch: 47212

The dashed part of the orbit path shows where the satellite is in the earth's shadow,  

DLR